Regional Weather Roundup
Issued by NWS

Home | Current Version | Previous Version | Text Only | Print | Product List | Glossary Off
Versions: 1 2 3 4 5 6 7 8 9 10 11 12 13 14 15 16 17 18 19 20 21 22 23 24 25 26 27 28 29 30 31 32 33 34 35 36 37 38 39 40 41 42 43 44 45 46 47 48 49 50

849
ASUS45 KTFX 220510
RWRMT
MONTANA REGIONAL WEATHER ROUNDUP
NATIONAL WEATHER SERVICE GREAT FALLS MT
1000 PM MST TUE FEB 21 2017

NOTE: "FAIR" INDICATES FEW OR NO CLOUDS BELOW 12000 FEET WITH NO
SIGNIFICANT WEATHER AND/OR OBSTRUCTIONS TO VISIBILITY.

MTZ001>007-043-220600-
WEST OF THE DIVIDE

CITY           SKY/WX    TMP DP  RH WIND       PRES   REMARKS
KALISPELL      CLOUDY    33  32  96 SE3       29.81R FOG
MISSOULA       CLOUDY    36  33  89 N8        29.85R WCI  30
BUTTE          CLOUDY    33  24  69 W5        29.78R
MULLAN PASS    SNOW      23  23 100 CALM      29.80R VSB 1/4
ANACONDA         N/A     36  21  55 W15       29.78S WCI  26
DEER LODGE       N/A     36  30  80 CALM      29.80R
EUREKA           N/A     30  28  93 CALM      29.82R VSB 1/4
HAMILTON         N/A     36  28  75 S7          N/A  WCI  30
LIBBY            N/A     30  30 100 CALM      29.83R VSB 1/4
RONAN            N/A     34  32  92 E1        29.88R
$$

MTZ008-052>055-220600-
SOUTHWEST MONTANA

CITY           SKY/WX    TMP DP  RH WIND       PRES   REMARKS
BOZEMAN        CLOUDY    40  19  43 SW14      29.76S
DILLON         CLOUDY    36  17  46 SW12      29.81R WCI  28
W YELLOWSTONE  CLOUDY    28  27  93 SW9G24    29.86R WCI  20
ENNIS          CLEAR     36  16  44 S17G23    29.86S WCI  25
$$

MTZ009-010-012-014-046-048-049-054-220600-
EAST SLOPES AND CENTRAL MONTANA

CITY           SKY/WX    TMP DP  RH WIND       PRES   REMARKS
CUT BANK       LGT SNOW  31  30  96 N5        29.72R FOG
GREAT FALLS    FOG       34  33  96 N9        29.69R VSB 1/4 WCI  27
MALMSTROM AFB  CLOUDY    34  34 100 N9        29.70R WCI  26
HELENA         CLOUDY    41  28  60 SW10      29.75R
AUGUSTA        FLURRIES  31  31 100 N13       29.70R WCI  21
BOWMANS CRNR   MOCLDY    30  29  95 N13G23    29.69R WCI  20
CHOTEAU          N/A     32  32 100 N9        29.75R WCI  24
POWER          SNOWSHWR  31  31 100 N12       29.70R VSB 1/2 WCI  22
RAYNESFORD     MOCLDY    40  31  71 W14G24    29.66S
ULM            MOCLDY    39  31  71 MISG      29.68R
$$

MTZ011-013-016-021-045-047-050-051-220600-
NORTH CENTRAL MONTANA

CITY           SKY/WX    TMP DP  RH WIND       PRES   REMARKS
HAVRE          CLOUDY    35  34  96 N5        29.72R
LEWISTOWN      CLOUDY    36  33  89 S14       29.66F WCI  27
N BAR RANCH    MOCLDY    36  32  87 NW13      29.69S WCI  27
CHINOOK          N/A     36  36 100 E3        29.73R
DENTON         FOG       34  33  98 N3        29.65R VSB 5/16
FORT BENTON      N/A     36  34  93 N5        29.72R
GEYSER         MOCLDY    36  32  87 W7        29.65S WCI  30
GRASS RANGE    LGT RAIN  33  33  99 E7        29.66S VSB 3/4 WCI  26
JUDITH GAP     CLOUDY    38  26  62 MISG      29.67F
ROY            MOCLDY    32  32  98 MISG      29.66F FOG
STANFORD       MOCLDY    38  27  64 SW16      29.65F WCI  29
WINIFRED       CLOUDY    34  34 100 S6        29.66S WCI  29
$$

MTZ017>020-022>027-061-062-220600-
NORTHEAST MONTANA

CITY           SKY/WX    TMP DP  RH WIND       PRES   REMARKS
GLASGOW        CLOUDY    33  31  92 NE6       29.71S FOG     WCI  28
JORDAN           N/A     35  33  92 CALM      29.69R
SIDNEY         MOCLDY    36  34  92 N12       29.68F WCI  28
WOLF POINT     LGT RAIN  35  33  92 N5        29.72F FOG
PLENTYWOOD       N/A     32  32 100 NE14      29.71R WCI  22
POPLAR           N/A     34  32  93 N6        29.72F WCI  29
$$

MTZ028>42-056>058-220600-
SOUTHCENTRAL AND SOUTHEAST MONTANA

CITY           SKY/WX    TMP DP  RH WIND       PRES   REMARKS
BAKER          CLOUDY    36  33  89 N6        29.65F WCI  31
BILLINGS       MOCLDY    46  26  45 SW14      29.69S
LIVINGSTON     CLEAR     38  17  42 SW21      29.70F WCI  28
MILES CITY     CLOUDY    40  36  86 N10       29.65S
BIG TIMBER     CLEAR     37  19  48 W12       29.74R WCI  30
FORSYTH          N/A     43  37  81 W6        29.65S
HARLOWTON      MOCLDY    34  22  60 SE3       29.67S
LAUREL           N/A     42  26  53 SW6       29.72S
$$

REGIONAL REPORTS...DAKOTAS

CITY           SKY/WX    TMP DP  RH WIND       PRES   REMARKS
WILLISTON      CLOUDY    34  32  92 N13       29.67F WCI  25
MINOT          CLOUDY    34  32  92 W5        29.67F
DICKINSON      CLOUDY    33  32  96 S3        29.65R
BEACH            N/A    N/A N/A N/A MISG        N/A
CROSBY         FOG       32  32 100 N6        29.74R VSB 1/2 WCI  26
TIOGA          CLOUDY    32  32 100 N9        29.70F FOG     WCI  24
WATFORD CITY   CLOUDY    34  34 100 NE6       29.67F WCI  29
BISMARCK       PTCLDY    35  34  96 CALM      29.67F
GRAND FORKS    CLOUDY    33  29  85 W3        29.67F FOG
FARGO          CLOUDY    36  35  96 NW7       29.68F WCI  30
BUFFALO SD       N/A     41  36  82 S7        29.61F
RAPID CITY     CLOUDY    50  36  58 SW9       29.72F
$$

REGIONAL REPORTS...WYOMING/IDAHO/WASHINGTON

CITY           SKY/WX    TMP DP  RH WIND       PRES   REMARKS
GILLETTE       CLOUDY    46  35  65 S18       29.72R
SHERIDAN       CLOUDY    49  22  34 SW32G43   29.69R
BUFFALO WY     CLOUDY    49  15  25 W39G52    29.72R
CODY           CLEAR     38  23  55 W10       29.78F WCI  31
YELLOWSTONE LA   N/A     24  21  88 VRB5      29.86R
IDAHO FALLS    CLEAR     34  30  85 SW21      29.95S WCI  22
SALMON         CLOUDY    39  23  52 S13       29.87R WCI  32
BOISE          MOCLDY    41  29  62 W6        30.02R
SPOKANE        DRIZZLE   32  31  96 SW9       29.94R FOG     WCI  24
$$

REGIONAL REPORTS...ALBERTA

CITY           SKY/WX    TMP DP  RH WIND       PRES   REMARKS
EDMONTON       CLOUDY    28  23  80 NW9       29.80R WCI  20
CALGARY        MOCLDY    28  25  86 SW3       29.71R FOG
LETHBRIDGE     CLOUDY    32  30  93 S8        29.73R FOG     WCI  25
MEDICINE HAT   CLOUDY    34  32  93 E7        29.75R FOG     WCI  28
WATERTON GATE    N/A     32  27  80 SW9         N/A  WCI  24
MILK RIVER       N/A     30  30 100 SE2         N/A
$$

REGIONAL REPORTS...SASKATCHEWAN

CITY           SKY/WX    TMP DP  RH WIND       PRES   REMARKS
SWIFT CURRENT  CLOUDY    30  27  86 NE6       29.75R WCI  24
REGINA         CLOUDY    32  25  74 N12       29.75S WCI  23
SASKATOON      CLOUDY    32  25  74 SW2       29.79R
CYPRESS HILLS    N/A     28  27  93 NE5         N/A
VAL MARIE        N/A     30  28  93 NE12        N/A  WCI  21
ASSINIBOIA       N/A     30  28  93 NW6         N/A  WCI  24
$$




USA.gov is the U.S. government's official web portal to all federal, state and local government web resources and services.